Starlink 34074

operational
NORAD ID: 64099 Int'l Des: 2025-110 Owner: SPXS Country: US Constellation: starlink
LEOCIRCULAR

Über Starlink 34074

Beschreibung wird geladen...

Live-Position

3D-Globus wird geladen...

Nächste Überflüge

Höhenverlauf

Altitude vs Time

uPlot chart will show altitude changes over time

Zweizeiliger Elementsatz

1 64099U 25110D 25353.38563935 .00020498 00000-0 70215-3 0 9998
2 64099 53.1606 40.0544 0001252 94.2557 265.8587 15.30206293 33581
Epoch: 19. Dez. 2025 • Age: 28 hours

Aktueller Status

Höhe 482.3 km
Geschwindigkeit 7.62 km/s
Subsatellitenpunkt -23.37°S, 86.33°E
Startdatum 23. Mai 2025
Alter 0.5 years
Typ internet

Technische Details

Klassifizierung Payload
Masse 575.00 kg
Trockenmasse 530.00 kg
Gesamtmasse 575.00 kg
Länge 0.30 m
Durchmesser 4.10 m
Spannweite 29.00 m
Form Box + pan
Hersteller SPXS
Bus-Typ Starlink V2MO
Phasenstatus In Orbit
Besitzer/Staat SPXS/US

Große Konstellationen

Loading constellations...